Preview of NWS' New Version of Forecast
This preview is not operational and should not be used for support decisions.

Regional Weather Roundup (RWR)

Issued by National Weather Service (NWS)

                            
000
ASUS45 KBOI 210110
RWRID 

IDAHO REGIONAL WEATHER ROUNDUP
NATIONAL WEATHER SERVICE BOISE ID
600 PM MST WED FEB 20 2019

NOTE: "FAIR" INDICATES FEW OR NO CLOUDS BELOW 12000 FEET
WITH NO SIGNIFICANT WEATHER AND/OR OBSTRUCTIONS TO VISIBILITY

IDZ012-014-210200-
SOUTHWEST IDAHO

  
CITY           SKY/WX    TMP DP  RH WIND       PRES   REMARKS
BOISE          MOCLDY    32  27  81 SE3       29.65S                  
CALDWELL       MOCLDY    33  27  78 CALM      29.68R                  
MOUNTAIN HOME  MOCLDY    32  32 100 N3        29.66R                  
$$

IDZ016-017-210200-
SOUTHCENTRAL IDAHO

  
CITY           SKY/WX    TMP DP  RH WIND       PRES   REMARKS
BURLEY         MOCLDY    26  21  81 E5        29.61F WCI  20          
JEROME         CLOUDY    24  20  84 NE13      29.62F WCI  12          
TWIN FALLS     FLURRIES  27  24  89 E8        29.61S WCI  19          
$$

IDZ019>023-210200-
SOUTHEAST IDAHO

  
CITY           SKY/WX    TMP DP  RH WIND       PRES   REMARKS
IDAHO FALLS    CLOUDY    18  11  74 NE5       29.66S WCI  11          
POCATELLO      PTCLDY    19  16  88 E3        29.65S                  
REXBURG        CLOUDY    20  13  74 SW5       29.65R WCI  13          
$$

IDZ006-010-011-018-031-032-210200-
CENTRAL IDAHO MOUNTAINS

  
CITY           SKY/WX    TMP DP  RH WIND       PRES   REMARKS
MCCALL         PTCLDY    22  16  78 SW3       29.54S                  
HAILEY         MOCLDY    19  12  73 CALM      29.60S                  
STANLEY          N/A     21   9  59 CALM      29.51S                  
SALMON         MOCLDY    22  16  78 E3        29.62R                  
CHALLIS        MOCLDY    21  12  68 W5        29.55S WCI  15          
$$

IDZ002-004-006-007-026-210200-
NORTHERN IDAHO

  
CITY           SKY/WX    TMP DP  RH WIND       PRES   REMARKS
LEWISTON       LGT SNOW  28  23  81 W7        29.80S WCI  21          
LOWELL           N/A     32  31  96 CALM      29.75R                  
COEUR D'ALENE  MOCLDY    27  21  78 N13       29.76R WCI  16          
MULLAN PASS    MOCLDY    12   8  84 VRB3      29.58R                  
$$